Regional Weather Roundup
Issued by NWS

Home | Current Version | Previous Version | Graphics & Text | Print | Product List | Glossary Off
Versions: 1 2 3 4 5 6 7 8 9 10 11 12 13 14 15 16 17 18 19 20 21 22 23 24 25 26 27 28 29 30 31 32 33 34 35 36 37 38 39 40 41 42 43 44 45 46 47 48 49 50

000
ASUS43 KTOP 090459
RWRKS

WEATHER ROUNDUP FOR KANSAS
NATIONAL WEATHER SERVICE GOODLAND KS
1100 PM CST MON FEB 08 2016

NOTE:  "FAIR" INDICATES FEW OR NO CLOUDS BELOW 12,000 FEET WITH NO
SIGNIFICANT WEATHER AND/OR OBSTRUCTIONS TO VISIBILITY.

KSZ001>006-013>018-027>032-041>047-090600-
NORTHWEST KANSAS

CITY           SKY/WX    TMP DP  RH WIND       PRES   REMARKS
GOODLAND       CLOUDY    25  21  85 W6        30.25F
HAYS           CLEAR     30  16  55 NW13      30.23S WCI  20
HILL CITY      MOCLDY    29  20  69 W8        30.24F
RUSSELL        CLEAR     27  19  72 NW9       30.22S
$$

KSZ061>065-074>080-084>089-090600-
SOUTHWEST KANSAS

CITY           SKY/WX    TMP DP  RH WIND       PRES   REMARKS
DODGE CITY     CLEAR     30  18  60 NW12      30.26F WCI  20
ELKHART          N/A     36  19  50 W14         N/A  WCI  27
GARDEN CITY    CLEAR     25  18  74 W9        30.27F
GREAT BEND     CLEAR     30  16  55 NW12      30.23F WCI  21
LIBERAL        CLEAR     27  12  54 W6        30.31S
$$

KSZ066>073-081>083-090>101-090600-
SOUTHEAST KANSAS

CITY           SKY/WX    TMP DP  RH WIND       PRES   REMARKS
CHANUTE        CLEAR     33  18  53 NW13      30.14S WCI  24
COFFEYVILLE    PTCLDY    32  17  54 W9        30.17S
HUTCHINSON     CLEAR     32  18  56 NW12      30.20F WCI  23
MEDICINE LODGE   N/A     31  16  54 NW8       30.24F
NEWTON         CLEAR     30  18  59 NW16G22   30.19S WCI  19
PARSONS        PTCLDY    32  18  56 NW12      30.16S WCI  23
WICHITA INTL   PTCLDY    33  18  53 NW15      30.19F WCI  23
WICHITA JABRA  CLEAR     31  19  61 W9        30.18F
WINFIELD       CLEAR     31  19  61 W10       30.21F WCI  22
$$

KSZ007>012-019>026-033>040-048>060-102>105-090600-
NORTHEAST KANSAS

CITY           SKY/WX    TMP DP  RH WIND       PRES   REMARKS
CONCORDIA      CLEAR     29  18  63 NW9       30.17S
EMPORIA        PTCLDY    31  18  58 NW10      30.13F WCI  22
LAWRENCE       CLOUDY    30  18  60 NW13      30.10F WCI  20
MANHATTAN      PTCLDY    32  20  61 VRB3      30.16S
OLATHE IND     PTCLDY    26  17  68 NW8       30.08F
OLATHE EXE     CLOUDY    27  17  66 NW14G21   30.07F WCI  16
SALINA         CLEAR     34  18  52 NW15      30.20S WCI  24
TOPEKA BILLARD PTCLDY    32  19  58 W8        30.11F
TOPEKA FORBES  CLOUDY    33  20  58 NW16      30.09F WCI  23
$$



USA.gov is the U.S. government's official web portal to all federal, state and local government web resources and services.